EDT,Max TemperatureF,Mean TemperatureF,Min TemperatureF,Max Dew PointF,MeanDew PointF,Min DewpointF,Max Humidity, Mean Humidity, Min Humidity, Max Sea Level PressureIn, Mean Sea Level PressureIn, Min Sea Level PressureIn, Max VisibilityMiles, Mean VisibilityMiles, Min VisibilityMiles, Max Wind SpeedMPH, Mean Wind SpeedMPH, Max Gust SpeedMPH,PrecipitationIn, CloudCover, Events, WindDirDegrees
2013-5-1,81,70,58,60,54,51,80,58,36,30.22,30.17,30.08,10,10,10,15,8,22,0.00,0,,110
2013-5-2,76,68,59,54,52,47,69,58,46,30.26,30.19,30.12,10,10,10,16,8,23,0.00,5,,131
2013-5-3,78,68,58,54,45,32,75,47,19,30.14,30.08,30.02,10,10,10,22,12,29,0.00,6,,134
2013-5-4,72,64,56,47,43,39,61,49,37,30.09,30.04,29.99,10,10,10,22,12,26,0.00,6,,114
2013-5-5,73,63,52,43,39,28,66,45,24,30.04,29.99,29.92,10,10,10,17,8,22,0.00,5,,93
2013-5-6,69,63,56,59,49,33,84,59,34,29.99,29.97,29.95,10,10,9,13,7,15,0.03,8,Rain,90
2013-5-7,72,65,57,59,55,53,93,75,57,29.98,29.95,29.93,10,10,8,20,7,26,0.02,7,Rain,54
2013-5-8,72,64,56,54,53,51,86,70,53,29.98,29.95,29.92,10,10,10,13,4,15,0.00,5,,5
2013-5-9,81,66,51,57,52,47,100,65,30,30.00,29.97,29.94,10,10,9,14,4,17,T,5,,231
2013-5-10,74,67,60,63,61,56,100,84,68,29.97,29.87,29.80,10,8,2,35,10,46,0.82,8,Rain-Thunderstorm,200
2013-5-11,62,55,47,61,50,39,100,84,67,29.96,29.86,29.82,10,8,3,25,10,33,0.07,8,Rain,296
2013-5-12,55,47,39,38,32,27,85,63,41,30.13,30.03,29.97,10,10,10,23,12,31,0.00,4,,294
2013-5-13,58,48,38,35,30,25,92,61,30,30.19,30.15,30.11,10,10,10,15,4,21,0.00,5,,319
2013-5-14,76,58,40,55,42,33,79,58,36,30.16,30.01,29.83,10,10,10,23,9,31,0.00,4,,179
2013-5-15,89,77,64,58,57,55,78,56,34,29.83,29.80,29.76,10,10,10,30,16,37,0.00,5,,225
2013-5-16,77,71,64,65,60,52,93,68,43,29.98,29.88,29.80,10,9,3,21,7,26,0.41,6,Rain-Thunderstorm,234
2013-5-17,80,71,62,64,61,56,100,73,45,30.10,30.04,29.99,10,4,0,18,5,23,0.00,6,Fog,156
2013-5-18,81,72,63,63,59,53,78,65,51,30.09,30.03,29.98,10,10,10,13,4,15,T,6,Rain,84
2013-5-19,82,72,62,66,63,60,93,74,54,30.03,29.98,29.92,10,10,9,15,6,24,0.00,4,,134
2013-5-20,86,76,65,70,67,64,93,71,48,30.03,29.95,29.88,10,8,3,20,8,28,T,4,,171
2013-5-21,88,80,71,69,64,58,93,65,36,29.93,29.86,29.80,10,9,6,24,11,30,0.00,6,,197
2013-5-22,82,74,66,64,61,60,87,69,51,29.85,29.80,29.73,10,10,8,25,12,31,0.05,6,Rain-Thunderstorm,198
2013-5-23,76,63,49,64,58,46,100,75,49,30.04,29.86,29.78,10,9,6,26,13,32,0.02,7,Rain,254
2013-5-24,59,52,45,45,38,34,86,63,40,30.33,30.22,30.07,10,10,10,24,12,35,0.00,4,,355
2013-5-25,65,52,38,42,38,33,92,65,37,30.39,30.33,30.25,10,10,7,16,5,20,0.00,5,,9
2013-5-26,71,57,42,42,35,29,82,52,22,30.33,30.28,30.21,10,10,10,12,3,15,0.00,4,,12
2013-5-27,71,62,53,53,45,34,83,62,40,30.25,30.16,30.02,10,10,9,20,9,26,0.10,7,Rain,110
2013-5-28,86,75,63,63,59,55,78,59,40,30.03,29.98,29.94,10,10,7,26,11,32,T,6,Rain,197
2013-5-29,89,79,68,61,59,53,73,52,31,30.07,30.03,30.00,10,10,10,25,12,31,0.00,3,,207
2013-5-30,89,78,67,65,62,60,81,60,38,30.16,30.09,30.02,10,10,9,20,8,24,0.00,5,,175
2013-5-31,89,79,68,66,63,61,93,68,43,30.07,30.02,29.95,10,10,7,29,10,33,0.10,5,Rain,190